TimeCDT,TemperatureF,Dew PointF,Humidity,Sea Level PressureIn,VisibilityMPH,Wind Direction,Wind SpeedMPH,Gust SpeedMPH,PrecipitationIn,Events,Conditions,WindDirDegrees,DateUTC
12:15 AM,71.6,54.7,55,30.21,10.0,SSE,6.9,-,N/A,,Clear,160,2013-08-25 05:15:00
12:35 AM,71.4,54.7,55,30.22,10.0,South,8.1,-,N/A,,Clear,170,2013-08-25 05:35:00
12:55 AM,70.0,54.9,59,30.22,10.0,South,6.9,-,N/A,,Clear,170,2013-08-25 05:55:00
1:15 AM,69.8,55.4,60,30.22,10.0,South,6.9,-,N/A,,Clear,170,2013-08-25 06:15:00
1:35 AM,70.3,55.6,59,30.22,10.0,South,6.9,-,N/A,,Clear,170,2013-08-25 06:35:00
1:55 AM,71.2,56.3,59,30.22,10.0,SSE,11.5,-,N/A,,Clear,160,2013-08-25 06:55:00
2:15 AM,70.9,56.3,60,30.23,10.0,SSE,8.1,-,N/A,,Clear,160,2013-08-25 07:15:00
2:35 AM,70.9,56.5,60,30.23,10.0,South,8.1,-,N/A,,Clear,170,2013-08-25 07:35:00
2:55 AM,69.8,56.8,63,30.23,10.0,SSW,5.8,-,N/A,,Clear,210,2013-08-25 07:55:00
3:15 AM,68.5,56.5,65,30.23,10.0,South,4.6,-,N/A,,Clear,190,2013-08-25 08:15:00
3:35 AM,66.6,56.3,69,30.23,10.0,South,3.5,-,N/A,,Clear,170,2013-08-25 08:35:00
3:55 AM,66.2,56.7,71,30.23,10.0,SSE,4.6,-,N/A,,Clear,160,2013-08-25 08:55:00
4:15 AM,66.2,57.2,73,30.23,10.0,SSE,5.8,-,N/A,,Clear,160,2013-08-25 09:15:00
4:35 AM,66.4,57.7,74,30.23,10.0,South,3.5,-,N/A,,Clear,180,2013-08-25 09:35:00
4:55 AM,65.5,58.1,77,30.23,10.0,SSE,5.8,-,N/A,,Clear,160,2013-08-25 09:55:00
5:15 AM,66.2,58.3,76,30.23,10.0,South,4.6,-,N/A,,Clear,190,2013-08-25 10:15:00
5:35 AM,66.0,58.3,76,30.24,10.0,SSW,3.5,-,N/A,,Clear,200,2013-08-25 10:35:00
5:55 AM,65.1,57.7,77,30.24,10.0,South,4.6,-,N/A,,Clear,190,2013-08-25 10:55:00
6:15 AM,64.2,57.9,80,30.24,10.0,South,4.6,-,N/A,,Clear,180,2013-08-25 11:15:00
6:35 AM,64.0,58.1,81,30.24,10.0,South,4.6,-,N/A,,Clear,170,2013-08-25 11:35:00
6:55 AM,63.9,58.3,82,30.25,10.0,South,3.5,-,N/A,,Clear,170,2013-08-25 11:55:00
7:15 AM,63.7,58.1,82,30.26,10.0,South,3.5,-,N/A,,Clear,180,2013-08-25 12:15:00
7:35 AM,64.0,57.6,79,30.26,10.0,Calm,Calm,-,N/A,,Clear,0,2013-08-25 12:35:00
7:55 AM,65.3,58.5,78,30.27,10.0,South,3.5,-,N/A,,Clear,170,2013-08-25 12:55:00
8:15 AM,68.2,59.5,74,30.27,10.0,South,3.5,-,N/A,,Clear,170,2013-08-25 13:15:00
8:35 AM,70.7,59.9,69,30.27,10.0,South,5.8,-,N/A,,Clear,170,2013-08-25 13:35:00
8:55 AM,73.2,59.9,63,30.28,10.0,South,6.9,-,N/A,,Clear,180,2013-08-25 13:55:00
9:15 AM,75.4,59.5,58,30.28,10.0,South,8.1,-,N/A,,Clear,190,2013-08-25 14:15:00
9:35 AM,78.3,59.0,51,30.28,10.0,South,9.2,-,N/A,,Clear,180,2013-08-25 14:35:00
9:55 AM,79.3,59.4,50,30.28,10.0,South,10.4,-,N/A,,Clear,190,2013-08-25 14:55:00
10:15 AM,81.5,58.1,45,30.29,10.0,SSW,10.4,-,N/A,,Clear,210,2013-08-25 15:15:00
10:35 AM,82.8,58.1,43,30.29,10.0,SW,11.5,-,N/A,,Clear,220,2013-08-25 15:35:00
10:55 AM,84.7,57.6,39,30.29,10.0,SSW,10.4,-,N/A,,Clear,200,2013-08-25 15:55:00
11:15 AM,85.5,57.0,38,30.29,10.0,SW,11.5,17.3,N/A,,Clear,220,2013-08-25 16:15:00
11:35 AM,86.7,56.5,36,30.29,10.0,SW,12.7,18.4,N/A,,Clear,220,2013-08-25 16:35:00
11:55 AM,87.3,55.9,34,30.28,10.0,SSW,13.8,19.6,N/A,,Clear,210,2013-08-25 16:55:00
12:15 PM,89.2,55.0,31,30.28,10.0,South,11.5,16.1,N/A,,Clear,180,2013-08-25 17:15:00
12:35 PM,89.2,54.0,30,30.27,10.0,SSE,11.5,17.3,N/A,,Clear,160,2013-08-25 17:35:00
12:55 PM,90.1,54.3,30,30.26,10.0,SSW,4.6,16.1,N/A,,Clear,210,2013-08-25 17:55:00
1:15 PM,88.3,54.1,31,30.26,10.0,South,6.9,20.7,N/A,,Scattered Clouds,190,2013-08-25 18:15:00
1:35 PM,88.9,54.0,30,30.25,10.0,South,9.2,19.6,N/A,,Scattered Clouds,170,2013-08-25 18:35:00
1:55 PM,90.3,53.4,28,30.25,10.0,South,8.1,18.4,N/A,,Scattered Clouds,180,2013-08-25 18:55:00
2:15 PM,90.0,52.3,28,30.25,10.0,SSE,12.7,18.4,N/A,,Mostly Cloudy,160,2013-08-25 19:15:00
2:35 PM,92.1,53.1,26,30.24,10.0,SSE,15.0,19.6,N/A,,Mostly Cloudy,150,2013-08-25 19:35:00
2:55 PM,91.8,52.3,26,30.24,10.0,SSE,11.5,18.4,N/A,,Scattered Clouds,150,2013-08-25 19:55:00
3:15 PM,92.8,52.9,26,30.23,10.0,South,11.5,20.7,N/A,,Clear,190,2013-08-25 20:15:00
3:35 PM,92.1,51.6,25,30.22,10.0,SSE,5.8,21.9,N/A,,Clear,150,2013-08-25 20:35:00
3:55 PM,92.5,50.2,24,30.22,10.0,SSW,10.4,20.7,N/A,,Clear,200,2013-08-25 20:55:00
4:15 PM,92.5,52.0,25,30.21,10.0,South,10.4,17.3,N/A,,Clear,190,2013-08-25 21:15:00
4:35 PM,93.2,50.9,24,30.20,10.0,South,11.5,19.6,N/A,,Clear,190,2013-08-25 21:35:00
4:55 PM,92.7,51.8,25,30.20,10.0,South,10.4,17.3,N/A,,Clear,170,2013-08-25 21:55:00
5:15 PM,91.6,51.6,26,30.20,10.0,SSE,12.7,20.7,N/A,,Clear,150,2013-08-25 22:15:00
5:35 PM,91.4,52.9,27,30.19,10.0,SSE,12.7,21.9,N/A,,Clear,150,2013-08-25 22:35:00
5:55 PM,90.7,53.2,28,30.20,10.0,SSE,12.7,-,N/A,,Scattered Clouds,150,2013-08-25 22:55:00
6:15 PM,92.1,52.9,26,30.20,10.0,SSE,16.1,26.5,N/A,,Clear,160,2013-08-25 23:15:00
6:35 PM,88.7,55.4,32,30.20,10.0,ESE,20.7,25.3,N/A,,Clear,120,2013-08-25 23:35:00
6:55 PM,88.3,55.2,32,30.19,10.0,ESE,15.0,21.9,N/A,,Clear,120,2013-08-25 23:55:00
7:15 PM,87.8,55.2,33,30.19,10.0,SE,13.8,20.7,N/A,,Clear,130,2013-08-26 00:15:00
7:35 PM,86.9,54.1,33,30.19,10.0,ESE,10.4,21.9,N/A,,Clear,120,2013-08-26 00:35:00
7:55 PM,86.5,53.6,32,30.19,10.0,SSE,12.7,20.7,N/A,,Clear,150,2013-08-26 00:55:00
8:15 PM,85.3,53.1,33,30.19,10.0,SSE,11.5,-,N/A,,Clear,160,2013-08-26 01:15:00
8:35 PM,83.3,54.1,37,30.20,10.0,SSE,12.7,-,N/A,,Clear,150,2013-08-26 01:35:00
8:55 PM,82.9,55.0,38,30.21,10.0,SSE,12.7,-,N/A,,Clear,150,2013-08-26 01:55:00
9:15 PM,81.7,55.0,40,30.21,10.0,SSE,8.1,-,N/A,,Clear,150,2013-08-26 02:15:00
9:35 PM,78.8,55.0,44,30.22,10.0,SSE,8.1,-,N/A,,Clear,160,2013-08-26 02:35:00
9:55 PM,79.3,56.5,45,30.23,10.0,SSE,10.4,16.1,N/A,,Clear,150,2013-08-26 02:55:00
10:15 PM,78.1,56.8,48,30.24,10.0,SSE,10.4,-,N/A,,Clear,160,2013-08-26 03:15:00
10:35 PM,75.2,56.8,53,30.24,10.0,South,6.9,-,N/A,,Clear,170,2013-08-26 03:35:00
10:55 PM,74.5,57.2,55,30.25,10.0,South,6.9,-,N/A,,Clear,170,2013-08-26 03:55:00
11:15 PM,74.1,57.2,55,30.26,10.0,South,6.9,-,N/A,,Clear,170,2013-08-26 04:15:00
11:35 PM,72.7,57.2,58,30.26,10.0,SSE,6.9,-,N/A,,Clear,160,2013-08-26 04:35:00
11:55 PM,72.9,57.2,58,30.27,10.0,SSE,8.1,-,N/A,,Clear,150,2013-08-26 04:55:00